Location: Morisset
(33.1080°S, 151.4871°E)
Time: 07:45:51
(UTC+00:00)

USA 276 - Pass Details

Date: 29 October 2020
Orbit: 384 x 395 km, 50.0° (Epoch: 05 November)

Event Time Altitude Azimuth Distance (km) Brightness Sun altitude
Exits shadow 17:51:57 - 232° (SW) 1,877 5.3 -13.4°
Reaches altitude 10° 17:52:59 10° 233° (SW) 1,453 4.7 -13.2°
Maximum altitude 17:56:14 71° 316° (NW) 425 2.0 -12.6°
Drops below altitude 10° 17:59:25 10° 41° (NE) 1,430 5.1 -12.0°
Sets 18:01:28 0° 43° (NE) 2,276 6.2 -11.6°
